Home   Weather   India   Lucknow   Past weeks
Flag for India

Past Weather in Lucknow, Uttar Pradesh, India — Yesterday and Last 2 Weeks

Currently: 82 °F. Haze. (Weather station: Lucknow / Amausi, India). See more current weather

Past Weather in Lucknow — Graph

°F

Lucknow Temperature Yesterday

Maximum temperature yesterday: 93 °F (at 4:00 pm)
Minimum temperature yesterday: 70 °F (at 1:00 am)
Average temperature yesterday: 82 °F

High & Low Weather Summary for the Past Weeks

  Temperature Humidity Pressure
High 109 °F (Apr 25, 2:30 pm) 100% (Apr 30, 10:00 pm) 29.89 "Hg (Apr 30, 10:00 pm)
Low 68 °F (May 4, 9:00 am) 11% (Apr 24, 12:30 pm) 29.47 "Hg (Apr 27, 4:00 pm)
Average 84 °F 59% 29.67 "Hg
* Reported Apr 24 8:30 am — May 9 9:00 am, Lucknow. Weather by CustomWeather, © 2026

Note: Actual official high and low records may vary slightly from our data, if they occured in-between our weather recording intervals... More about our weather records

Lucknow Weather History for the Previous 24 Hours

Scroll right to see more
  Conditions Comfort    
Time   Temp Weather Wind   Humidity Barometer Visibility
9:00 am
Sat, May 9
82 °F Haze. 12 mph 62% 29.83 "Hg 3 mi
8:30 am 81 °F Haze. 13 mph 66% 29.83 "Hg 3 mi
8:00 am 79 °F Haze. 13 mph 70% 29.83 "Hg 2 mi
7:30 am 77 °F Haze. 14 mph 69% 29.80 "Hg 2 mi
7:00 am 77 °F Haze. 9 mph 69% 29.80 "Hg 2 mi
6:30 am 77 °F Haze. 9 mph 74% 29.80 "Hg 2 mi
6:00 am 75 °F Fog. 12 mph 78% 29.80 "Hg 2 mi
5:30 am 75 °F Fog. 10 mph 83% 29.77 "Hg 2 mi
5:00 am 77 °F Fog. 9 mph 83% 29.77 "Hg 2 mi
4:30 am 77 °F Fog. 9 mph 83% 29.77 "Hg 2 mi
4:00 am 77 °F Fog. 8 mph 79% 29.74 "Hg 2 mi
3:30 am 77 °F Haze. 7 mph 79% 29.74 "Hg 2 mi
3:00 am 77 °F Fog. 8 mph 79% 29.74 "Hg 2 mi
2:30 am 79 °F Haze. 8 mph 70% 29.74 "Hg 2 mi
2:00 am 79 °F Haze. 8 mph 70% 29.74 "Hg 2 mi
1:30 am 79 °F Haze. 8 mph 70% 29.74 "Hg 2 mi
1:00 am 79 °F Haze. 9 mph 70% 29.74 "Hg 2 mi
12:30 am 81 °F Haze. 12 mph 66% 29.74 "Hg 2 mi
12:00 am 82 °F Haze. 13 mph 58% 29.77 "Hg 2 mi
11:30 pm
Fri, May 8
81 °F Haze. 9 mph 62% 29.77 "Hg 2 mi
11:00 pm 81 °F Haze. 6 mph 66% 29.77 "Hg 2 mi
10:30 pm 82 °F Haze. 6 mph 62% 29.77 "Hg 2 mi
10:00 pm 82 °F Haze. 6 mph 62% 29.77 "Hg 3 mi
9:30 pm 82 °F Haze. 6 mph 62% 29.77 "Hg 3 mi
9:00 pm 84 °F Haze. 5 mph 58% 29.77 "Hg 3 mi
8:30 pm 84 °F Haze. 5 mph 58% 29.77 "Hg 3 mi
8:00 pm 86 °F Haze. 6 mph 55% 29.74 "Hg 3 mi
7:30 pm 86 °F Haze. 7 mph 55% 29.74 "Hg 3 mi
7:00 pm 88 °F Haze. 7 mph 49% 29.74 "Hg 3 mi
6:30 pm 88 °F Haze. 7 mph 49% 29.71 "Hg 3 mi
6:00 pm 90 °F Haze. 7 mph 46% 29.71 "Hg 3 mi
5:30 pm 91 °F Haze. 8 mph 44% 29.71 "Hg 3 mi
5:00 pm 91 °F Haze. 8 mph 44% 29.71 "Hg 3 mi
4:30 pm 91 °F Haze. 6 mph 41% 29.71 "Hg 3 mi
4:00 pm 93 °F Haze. 6 mph 39% 29.71 "Hg 3 mi
3:30 pm 91 °F Haze. No wind 36% 29.74 "Hg 3 mi
3:00 pm 91 °F Haze. 7 mph 41% 29.74 "Hg 3 mi
2:30 pm 91 °F Haze. 6 mph 38% 29.77 "Hg 3 mi
2:00 pm 91 °F Haze. 5 mph 41% 29.77 "Hg 3 mi
1:30 pm 91 °F Haze. 3 mph 41% 29.80 "Hg 3 mi
1:00 pm 90 °F Haze. 5 mph 49% 29.80 "Hg 3 mi
12:30 pm 90 °F Haze. 8 mph 49% 29.83 "Hg 3 mi
12:00 pm 88 °F Haze. 9 mph 52% 29.83 "Hg 3 mi
11:30 am 86 °F Haze. 10 mph 52% 29.83 "Hg 3 mi
11:00 am 86 °F Haze. 9 mph 55% 29.86 "Hg 3 mi
10:30 am 86 °F Haze. 10 mph 55% 29.86 "Hg 3 mi
10:00 am 84 °F Haze. 8 mph 58% 29.86 "Hg 3 mi
Weather by CustomWeather, © 2026

See weather overview